Meteo Giornale » Osservazioni meteo Francia » Cannes

ore: 00:00 - Osservazioni Meteo Cannes
Lat. 43° 33' N Lon. 6° 57' E Alt. 3 metri s.l.m.

poco_nuvoloso Europe/Paris

20 °C

Poco Nuvoloso

Temp. 24 Ore

20 °C

26 °C

Nord

1.8 Km/h

Dew point 18 °C

Umidità 88 %

Visibilità  10 Km

Il sole sorge alle ore 07:14

Il sole tramonta alle ore 19:37

Data e Ora Cielo e Fenomeni T °C DP °C Um. % Pres. hPa Vis. km Vento km/h
Oggi h: 00:00 poco_nuvoloso Poco Nuvoloso 20 18 88 1015 10 N 1.8
Ieri h: 23:30 molto_nuvoloso Molto Nuvoloso 20 19 93 1016 10 N 3.7
Ieri h: 23:00 nuvoloso Nuvoloso 21 19 88 1015 10 N 0
Ieri h: 22:30 sereno Sereno 21 19 88 1015 10 N 3.7
Ieri h: 22:00 sereno Sereno 21 19 88 1015 10 N 3.7
Ieri h: 21:30 sereno Sereno 22 19 83 1015 10 N 0
Ieri h: 21:00 sereno Sereno 22 19 83 1015 10 N 0
Ieri h: 20:30 sereno Sereno 23 20 83 1015 10 N 0
Ieri h: 20:00 sereno Sereno 23 20 83 1015 10 N 3.7
Ieri h: 19:30 molto_nuvoloso Molto Nuvoloso 23 20 83 1014 10 N 5.5
Ieri h: 19:00 nuvoloso Nuvoloso 24 20 78 1015 10 N 3.7
Ieri h: 18:30 molto_nuvoloso Molto Nuvoloso 24 20 78 1015 10 N 5.5
Ieri h: 18:00 molto_nuvoloso Molto Nuvoloso 24 20 78 1015 10 S 7.4
Ieri h: 17:30 poco_nuvoloso Poco Nuvoloso 24 20 78 1014 10 SE 7.4
Ieri h: 17:00 nuvoloso Nuvoloso 24 20 78 1014 10 S/SE 9.3
Ieri h: 16:30 poco_nuvoloso Poco Nuvoloso 24 20 78 1015 10 S/SE 9.3
Ieri h: 16:00 poco_nuvoloso Poco Nuvoloso 24 20 78 1015 10 S 9.3
Ieri h: 15:30 nuvoloso Nuvoloso 25 20 73 1015 10 S/SE 11.1
Ieri h: 15:00 poco_nuvoloso Poco Nuvoloso 25 21 78 1015 10 S/SE 13
Ieri h: 14:30 poco_nuvoloso Poco Nuvoloso 25 21 78 1015 10 S 16.7
Ieri h: 14:00 nuvoloso Nuvoloso 26 20 69 1015 10 S/SE 13
Ieri h: 13:30 molto_nuvoloso Molto Nuvoloso 25 20 73 1015 10 SE 11.1
Ieri h: 13:00 molto_nuvoloso Molto Nuvoloso 26 21 73 1015 10 S/SE 11.1
Ieri h: 12:30 molto_nuvoloso Molto Nuvoloso 25 20 73 1015 10 SE 11.1
Ieri h: 12:00 coperto Coperto 25 20 73 1015 10 E/SE 11.1
Ieri h: 11:30 molto_nuvoloso Molto Nuvoloso 25 20 73 1015 10 E/NE 9.3
Ieri h: 11:00 nuvoloso Nuvoloso 26 19 65 1015 10 E 9.3
Ieri h: 10:30 molto_nuvoloso Molto Nuvoloso 24 20 78 1015 10 N 5.5
Ieri h: 10:00 coperto Coperto 23 20 83 1015 10 N 5.5
Ieri h: 09:30 coperto Coperto 22 19 83 1014 10 N 3.7
Ieri h: 09:00 molto_nuvoloso Molto Nuvoloso 21 19 88 1014 10 N 5.5
Ieri h: 08:30 nuvoloso Nuvoloso 20 18 88 1014 10 N 5.5
Ieri h: 08:00 poco_nuvoloso Poco Nuvoloso 20 18 88 1014 10 N 0
Ieri h: 07:30 molto_nuvoloso Molto Nuvoloso 20 18 88 1013 10 N 9.3
Ieri h: 07:00 nuvoloso Nuvoloso 20 18 88 1013 10 N/NE 7.4
Ieri h: 06:30 sereno Sereno 20 18 88 1013 10 N 5.5
Ieri h: 06:00 poco_nuvoloso Poco Nuvoloso 20 19 93 1013 10 N 3.7
Ieri h: 05:30 molto_nuvoloso Molto Nuvoloso 20 19 93 1014 10 N 5.5
Ieri h: 05:00 coperto Coperto 21 19 88 1014 10 N 5.5
Ieri h: 04:30 coperto Coperto 21 20 94 1014 10 N 3.7
Ieri h: 04:00 molto_nuvoloso Molto Nuvoloso 21 19 88 1014 10 N 1.8
Ieri h: 03:30 molto_nuvoloso Molto Nuvoloso 22 19 83 1014 10 N 3.7
Ieri h: 03:00 coperto Coperto 22 19 83 1014 10 N 3.7
Ieri h: 02:30 coperto Coperto 22 19 83 1014 10 N 3.7
Ieri h: 01:30 coperto Coperto 22 20 88 1014 10 N 3.7
Ieri h: 01:00 coperto Coperto 22 20 88 1014 10 N 3.7